Location: Unspecified
(0.0000°N, 0.0000°E)
Time: 06:35:36
(UTC+00:00)

SRMSAT - Pass Details

Date: 03 April 2019
Orbit: 848 x 866 km, 20.0° (Epoch: 16 June)

Event Time Altitude Azimuth Distance (km) Brightness Sun altitude
Rises 20:50:29 0° 260° (W) 3,415 ? -41.6°
Reaches altitude 10° 20:53:09 10° 266° (W) 2,475 ? -42.2°
Enters shadow 20:54:48 19° 272° (W) 1,922 ? -42.6°
